TimeAKST,TemperatureF,Dew PointF,Humidity,Sea Level PressureIn,VisibilityMPH,Wind Direction,Wind SpeedMPH,Gust SpeedMPH,PrecipitationIn,Events,Conditions,WindDirDegrees,DateUTC
12:53 AM,34.0,21.9,61,29.59,10.0,NE,15.0,25.3,N/A,,Clear,40,2012-11-16 09:53:00
1:53 AM,33.1,21.0,61,29.57,7.0,NE,24.2,33.4,N/A,,Clear,40,2012-11-16 10:53:00
2:53 AM,32.0,19.9,61,29.54,10.0,NE,24.2,36.8,N/A,,Clear,40,2012-11-16 11:53:00
3:53 AM,33.1,19.0,56,29.53,10.0,NNE,23.0,43.7,N/A,,Partly Cloudy,20,2012-11-16 12:53:00
4:53 AM,33.1,18.0,54,29.54,10.0,North,11.5,34.5,N/A,,Clear,360,2012-11-16 13:53:00
5:53 AM,32.0,17.1,54,29.52,10.0,NNE,25.3,38.0,N/A,,Clear,30,2012-11-16 14:53:00
6:53 AM,32.0,16.0,52,29.52,10.0,NNE,23.0,38.0,N/A,,Mostly Cloudy,30,2012-11-16 15:53:00
7:53 AM,32.0,16.0,52,29.52,10.0,NNE,27.6,40.3,N/A,,Mostly Cloudy,30,2012-11-16 16:53:00
8:53 AM,33.1,16.0,50,29.50,10.0,NNE,25.3,36.8,N/A,,Overcast,30,2012-11-16 17:53:00
9:53 AM,32.0,15.1,50,29.49,10.0,NE,32.2,44.9,N/A,,Overcast,40,2012-11-16 18:53:00
10:53 AM,32.0,15.1,50,29.49,10.0,NNE,31.1,42.6,N/A,,Overcast,30,2012-11-16 19:53:00
11:53 AM,30.9,15.1,52,29.50,10.0,NNE,23.0,33.4,N/A,,Overcast,20,2012-11-16 20:53:00
12:53 PM,30.9,16.0,54,29.52,10.0,NNE,15.0,28.8,N/A,,Overcast,20,2012-11-16 21:53:00
1:53 PM,30.9,16.0,54,29.54,10.0,North,12.7,26.5,N/A,,Overcast,360,2012-11-16 22:53:00
2:53 PM,30.0,14.0,51,29.55,10.0,North,15.0,23.0,N/A,,Overcast,10,2012-11-16 23:53:00
3:53 PM,30.0,15.1,54,29.59,10.0,North,10.4,28.8,N/A,,Overcast,350,2012-11-17 00:53:00
4:53 PM,28.9,12.9,51,29.60,10.0,NNE,16.1,24.2,N/A,,Overcast,20,2012-11-17 01:53:00
5:53 PM,28.9,12.0,49,29.60,10.0,NNE,13.8,20.7,N/A,,Overcast,30,2012-11-17 02:53:00
6:53 PM,28.0,10.9,49,29.62,10.0,NE,8.1,19.6,N/A,,Overcast,40,2012-11-17 03:53:00
7:53 PM,28.0,10.0,47,29.64,10.0,Variable,5.8,-,N/A,,Overcast,0,2012-11-17 04:53:00
8:53 PM,28.0,9.0,45,29.65,10.0,NE,9.2,18.4,N/A,,Overcast,40,2012-11-17 05:53:00
9:53 PM,27.0,8.1,45,29.65,10.0,North,13.8,28.8,N/A,,Overcast,10,2012-11-17 06:53:00
10:53 PM,26.1,7.0,44,29.65,10.0,NNE,13.8,24.2,N/A,,Overcast,30,2012-11-17 07:53:00
11:53 PM,26.1,7.0,44,29.66,10.0,NNE,15.0,25.3,N/A,,Overcast,30,2012-11-17 08:53:00